This demonstration page uses our WeatherBlox Daily Observations layout. Learn more.

Left ArrowRight Arrow

39.29038, -76.61219

Hourly Observations for February 2, 2015

Temp ( °F °C ) Dew Point ( °F °C ) Humidity (%) Winds ( mph kmh ) Pressure ( in mb ) Visibility ( mi km ) Precip ( " mm )
12:54 am 00:54 undefined 33 0.6 31 -0.6 92 92 undefined N/A 29.77 1008 N/A 0.03 0.76
1:54 am 01:54 undefined 34 1.1 32 0 92 92 undefined N/A 29.72 1006 N/A 0.06 1.52
2:54 am 02:54 undefined 34 1.1 33 0.6 97 97 undefined N/A 29.65 1004 N/A 0.04 1.02
3:54 am 03:54 undefined 35 1.7 34 1.1 96 96 undefined N/A 29.60 1002 N/A 0.00 0.00
4:54 am 04:54 undefined 35 1.7 34 1.1 96 96 undefined N/A 29.56 1001 N/A 0.00 0.00
5:54 am 05:54 undefined 35 1.7 34 1.1 96 96 undefined N/A 29.51 999 N/A 0.01 0.25
6:54 am 06:54 undefined 36 2.2 35 1.7 97 97 undefined N/A 29.50 999 N/A 0.00 0.00
7:54 am 07:54 undefined 36 2.2 36 2.2 100 100 undefined N/A 29.46 998 N/A 0.01 0.25
8:54 am 08:54 undefined 37 2.8 37 2.8 100 100 undefined N/A 29.45 997 N/A 0.05 1.27
9:54 am 09:54 undefined 40 4.4 38 3.3 93 93 undefined N/A 29.44 997 N/A 0.08 2.03
10:54 am 10:54 undefined 42 5.6 38 3.3 85 85 undefined N/A 29.46 998 N/A 0.00 0.00
12:54 pm 12:54 undefined 44 6.7 31 -0.6 60 60 undefined N/A 29.44 997 N/A 0.00 0.00
1:54 pm 13:54 undefined 44 6.7 27 -2.8 51 51 undefined N/A 29.46 998 N/A 0.00 0.00
2:54 pm 14:54 undefined 41 5 22 -5.6 47 47 undefined N/A 29.52 1000 N/A 0.00 0.00
3:54 pm 15:54 undefined 34 1.1 16 -8.9 48 48 undefined N/A 29.59 1002 N/A 0.00 0.00
4:54 pm 16:54 undefined 30 -1.1 13 -10.6 49 49 undefined N/A 29.67 1005 N/A 0.00 0.00
5:54 pm 17:54 undefined 29 -1.7 11 -11.7 47 47 undefined N/A 29.76 1008 N/A 0.00 0.00
6:54 pm 18:54 undefined 27 -2.8 10 -12.2 49 49 undefined N/A 29.90 1013 N/A 0.00 0.00
7:30 pm 19:30 undefined 26 -3.3 9 -12.8 48 48 undefined N/A 29.97 1015 N/A 0.00 0.00
7:54 pm 19:54 undefined 26 -3.3 10 -12.2 51 51 undefined N/A 29.96 1014 N/A 0.00 0.00
8:54 pm 20:54 undefined 25 -3.9 9 -12.8 50 50 undefined N/A 29.93 1013 N/A 0.00 0.00
9:54 pm 21:54 undefined 25 -3.9 9 -12.8 50 50 undefined N/A 30.08 1019 N/A 0.00 0.00
10:27 pm 22:27 undefined 24 -4.4 8 -13.3 50 50 undefined N/A 30.12 1020 N/A 0.00 0.00
10:54 pm 22:54 undefined 24 -4.4 7 -13.9 48 48 undefined N/A 30.04 1017 N/A 0.00 0.00
11:54 pm 23:54 undefined 24 -4.4 6 -14.4 46 46 undefined N/A 30.09 1019 N/A 0.00 0.00

Powered by AerisWeather